Regional Weather Roundup
Issued by NWS

Home | Current Version | Previous Version | Text Only | Print | Product List | Glossary On
Versions: 1 2 3 4 5 6 7 8 9 10 11 12 13 14 15 16 17 18 19 20 21 22 23 24 25 26 27 28 29 30 31 32 33 34 35 36 37 38 39 40 41 42 43 44 45 46 47 48 49 50
000
ASUS43 KMKX 240511
RWRWI

WISCONSIN REGIONAL WEATHER ROUNDUP
NATIONAL WEATHER SERVICE MILWAUKEE/SULLIVAN WI
1200 AM CDT TUE OCT 24 2017

NOTE: "FAIR" INDICATES FEW OR NO CLOUDS BELOW 12,000 FEET WITH NO
SIGNIFICANT WEATHER AND/OR OBSTRUCTIONS TO VISIBILITY.

WIZ001-002-006>008-014>016-023>028-240600-
NORTHWEST WISCONSIN

CITY           SKY/WX    TMP DP  RH WIND       PRES   REMARKS
SUPERIOR ARPT  CLOUDY    45  35  68 N13       29.81F
ASHLAND        CLOUDY    45  37  73 NW12G22   29.74F
HAYWARD        CLOUDY    44  35  70 N12G21    29.75F
SIREN          CLOUDY    44  32  62 N15G24    29.81F
CUMBERLAND     CLOUDY    43  32  65 N22G31    29.76F
RICE LAKE      CLOUDY    45  34  66 NW10G20   29.77F
CHETEK         CLOUDY    45  37  73 N8G20     29.74F
LADYSMITH      CLOUDY    46  40  77 NW16G23   29.71F
EAU CLAIRE     NOT AVBL
MENOMONIE      CLOUDY    47  37  69 NW15G23   29.75F
NEW RICHMOND   CLOUDY    45  32  60 NW15G23   29.80F
OSCEOLA        CLOUDY    46  32  59 NW13G21   29.84F
$$

WIZ003>005-009-010-017-018-240600-
NORTH CENTRAL WISCONSIN

CITY           SKY/WX    TMP DP  RH WIND       PRES   REMARKS
MANITOWISH WTR DRIZZLE   42  42 100 NW16G24   29.64F
ARBOR VITAE    DRIZZLE   45  44  93 NW13G23   29.62S
WOODRUFF       DRIZZLE   45  44  93 NW13G23   29.62S
RHINELANDER    LGT RAIN  46  46 100 NW14G21   29.60S
EAGLE RIVER    LGT RAIN  46  46  99 N14       29.58F
LAND O LAKES   RAIN      46  43  89 NW12G20   29.61F
PHILLIPS       RAIN      42  41  98 NW13G20   29.66F
TOMAHAWK       DRIZZLE   44  42  92 NW12G25   29.62F
MEDFORD        LGT RAIN  45  43  93 NW15G22   29.63F
MERRILL        RAIN      47  46  97 N14G22    29.60F
$$

WIZ029-030-035-036-043>047-240600-
CENTRAL WISCONSIN

CITY           SKY/WX    TMP DP  RH WIND       PRES   REMARKS
WAUSAU         LGT RAIN  47  45  93 NW16G24   29.57F
MOSINEE        LGT RAIN  46  45  93 NW15      29.59F
MARSHFIELD     LGT RAIN  46  43  89 NW18G28   29.61F
STEVENS POINT  DRIZZLE   47  47 100 NW9G17    29.58F
WAUPACA        CLOUDY    52  49  91 NW10      29.54F
WAUTOMA        LGT RAIN N/A N/A N/A NW15      29.56F
WISC RAPIDS    LGT RAIN  48  45  89 NW15G22   29.61F
CAMP DOUGLAS   CLOUDY    46  45  93 NW18G26   29.63F
$$

WIZ011>013-019>022-031-037>040-048>050-240600-
NORTHEAST WISCONSIN

CITY           SKY/WX    TMP DP  RH WIND       PRES   REMARKS
ANTIGO         CLOUDY    47  46  95 N10       29.55F
SHAWANO        CLOUDY    50  45  83 W6        29.52F
OCONTO         CLOUDY    47  45  93 W5        29.49F
STURGEON BAY   NOT AVBL
GREEN BAY      CLOUDY    48  48 100 W3        29.51F
MANITOWOC      CLOUDY    48  46  93 W5        29.51F
APPLETON       CLOUDY    48  43  81 NW9       29.51F
CLINTONVILLE   CLOUDY    50  45  81 NW10      29.53F
OSHKOSH        CLOUDY    50  47  89 NW12      29.52F
$$

WIZ032>034-041-042-053>061-240600-
SOUTHWEST WISCONSIN

CITY           SKY/WX    TMP DP  RH WIND       PRES   REMARKS
LA CROSSE      CLOUDY    50  40  68 NW20G32   29.70F
SPARTA         LGT RAIN  45  43  95 W10G20    29.68F
VIROQUA        CLOUDY    46  42  86 NW16G23   29.68F
BOSCOBEL       CLOUDY    51  42  71 NW12      29.68F
PRAIRIE DU CHI CLOUDY    48  37  65 NW18      29.71F
PLATTEVILLE    CLOUDY    48  45  89 W10       29.67F
$$

WIZ056-057-062-063-064-067-068-240600-
SOUTH CENTRAL WISCONSIN

CITY           SKY/WX    TMP DP  RH WIND       PRES   REMARKS
REEDSBURG      DRIZZLE   46  46 100 NW10G17   29.62F
BARABOO/DELLS  LGT RAIN  46  44  90 NW13G22   29.61F
LONE ROCK      LGT RAIN  49  44  83 NW17      29.65F
MINERAL POINT  CLOUDY    50  45  81 NW15      29.64F
MADISON        RAIN      48  45  89 W9        29.59F
MIDDLETON      CLOUDY    48  47  95 W16G24    29.61F
WATERTOWN      LGT RAIN  48  48 100 W13G18    29.55F
MONROE         DRIZZLE   46  43  87 W14       29.62F
JANESVILLE     LGT RAIN  46  46 100 W12       29.60F
$$

WIZ051-052-058>065-066-070>072-240600-
SOUTHEAST WISCONSIN

CITY           SKY/WX    TMP DP  RH WIND       PRES   REMARKS
MILWAUKEE      CLOUDY    53  47  79 NW14G23   29.54F
WAUKESHA       DRIZZLE   46  45  93 W13       29.55F
MILWAUKEE/TIMM CLOUDY    50  43  76 W10       29.54F
RACINE         CLOUDY    51  46  83 W10       29.55F
BURLINGTON     DRIZZLE   48  48 100 W10       29.56F
KENOSHA        LGT RAIN  51  46  83 W13       29.55F
FOND DU LAC    CLOUDY    51  46  83 NW15G25   29.52F
SHEBOYGAN      CLOUDY    48  47  96 CALM      29.51F
WEST BEND      CLOUDY    50  45  81 NW10      29.53F
JUNEAU         DRIZZLE   48  47  95 W6        29.55F
$$

LSZ147-162-240600-
LAKE SUPERIOR

STATION/POSITION TIME  TEMP    WIND        PRES    WAVE
                       AIR SEA DIR/SP/G            HT/PER
                 (UTC) (F)     (DEG/KT/KT) (MB)    (FT/S)
W MID LAKE BUOY  0350   50 51              1004.5F   3/ 4
DEVILS ISLAND    0500   46     330/ 26/ 29 1006.9F
PORT WING        0440          320/ 17/ 23 1008.8F
SAXON HARBOR     0430   49     330/ 20/ 27 1006.1F
$$

LMZ867-665-643>646-240600-
LAKE MICHIGAN

STATION/POSITION TIME  TEMP    WIND        PRES    WAVE
                       AIR SEA DIR/SP/G            HT/PER
                 (UTC) (F)     (DEG/KT/KT) (MB)    (FT/S)
S GREEN BAY BUOY 0500   51 58  300/ 10/ 12  998.8
N MID LAKE BUOY  0450   52 57  340/ 21/ 27  997.1F   3/ 4
NORTHPORT PIER   0440   53     320/ 17/ 19  998.0F
KEWAUNEE LAKESHO 0448   49     280/  3/  5  998.1F
SHEBOYGAN LAKESH 0500   50     250/  5/  6  999.2F
PORT WASHINGTON  0440   52     280/  3/  8 1001.0F
MILWAUKEE LAKESH 0450   52     290/ 12/ 14   N/A
S MID LAKE BUOY  0450   54 60  300/ 14/ 16 1000.1F   2/ 5
KENOSHA   LAKESH 0500   51     290/ 14/ 21 1000.7
$$

TC  - TEMPERATURE IN CELSIUS
VSB - VISIBILITY IN STATUTE MILES
WCI - WIND CHILL INDEX
HX  - HEAT INDEX





USA.gov is the U.S. government's official web portal to all federal, state and local government web resources and services.